YT6PT-8 Weather Reports


time (UTC)temp
C
wind
direction
speed
KPH
gust
KPH
rain 1hr
cm
rain 24hr
cm
rain mn
cm
humidity
%
barometer
mb
20260902185036 19 68 0.0 0.0 0.00 0.00 0.00 47 1011.0
20260902184535 19 68 0.0 0.0 0.00 0.00 0.00 47 1011.0
20260902184059 19 68 6.4 6.4 0.00 0.00 0.00 47 1011.0
20260902183536 19 68 6.4 6.4 0.00 0.00 0.00 47 1011.0
20260902183035 19 68 0.0 0.0 0.00 0.00 0.00 48 1010.5
20260902182536 19 68 0.0 0.0 0.00 0.00 0.00 48 1010.5
20260902182037 19 68 0.0 0.0 0.00 0.00 0.00 48 1010.6
20260902181537 19 68 0.0 0.0 0.00 0.00 0.00 48 1010.6
20260902181035 19 68 0.0 0.0 0.00 0.00 0.00 48 1010.6
20260902180536 19 68 0.0 0.0 0.00 0.00 0.00 48 1010.6
20260902180037 20 68 0.0 0.0 0.00 0.00 0.00 48 1010.4
20260902175536 20 68 0.0 0.0 0.00 0.00 0.00 48 1010.4
20260902175036 20 68 3.2 3.2 0.00 0.00 0.00 47 1010.0
20260902174536 20 68 3.2 3.2 0.00 0.00 0.00 47 1010.0
20260902174033 20 68 1.6 1.6 0.00 0.00 0.00 47 1010.0
20260902173555 20 68 1.6 1.6 0.00 0.00 0.00 47 1010.0
20260902173056 20 68 0.0 0.0 0.00 0.00 0.00 47 1010.0
20260902172556 20 68 0.0 0.0 0.00 0.00 0.00 47 1010.0
20260902172043 20 68 3.2 3.2 0.00 0.00 0.00 47 1010.0
20260902171536 20 68 3.2 3.2 0.00 0.00 0.00 47 1010.0
20260902171043 20 68 1.6 1.6 0.00 0.00 0.00 47 1010.0
20260902170536 20 68 1.6 1.6 0.00 0.00 0.00 47 1010.0
20260902170036 21 68 0.0 0.0 0.00 0.00 0.00 46 1010.2
20260902165535 21 68 0.0 0.0 0.00 0.00 0.00 46 1010.2
20260902165054 21 68 0.0 0.0 0.00 0.00 0.00 45 1010.0
20260902164555 21 68 0.0 0.0 0.00 0.00 0.00 45 1010.0
20260902164036 21 68 1.6 1.6 0.00 0.00 0.00 44 1010.0
20260902163536 21 68 1.6 1.6 0.00 0.00 0.00 44 1010.0
20260902163036 21 68 1.6 1.6 0.00 0.00 0.00 44 1009.9
20260902162535 21 68 1.6 1.6 0.00 0.00 0.00 44 1009.9
20260902162042 22 68 3.2 3.2 0.00 0.00 0.00 43 1010.1
20260902161535 22 68 3.2 3.2 0.00 0.00 0.00 43 1010.1
20260902161042 22 45 6.4 6.4 0.00 0.00 0.00 42 1010.1
20260902160536 22 45 6.4 6.4 0.00 0.00 0.00 42 1010.1
20260902160058 21 45 4.8 4.8 0.00 0.00 0.00 43 1010.1
20260902155552 21 45 4.8 4.8 0.00 0.00 0.00 43 1010.1
20260902155056 22 45 4.8 4.8 0.00 0.00 0.00 42 1010.2
20260902154536 22 45 4.8 4.8 0.00 0.00 0.00 42 1010.2
20260902154036 22 68 3.2 3.2 0.00 0.00 0.00 42 1010.2
20260902153537 22 68 3.2 3.2 0.00 0.00 0.00 42 1010.2
20260902153036 22 22 1.6 1.6 0.00 0.00 0.00 41 1010.1
20260902152553 22 22 1.6 1.6 0.00 0.00 0.00 41 1010.1
20260902152059 23 68 3.2 3.2 0.00 0.00 0.00 40 1010.3
20260902151557 23 68 3.2 3.2 0.00 0.00 0.00 40 1010.3
20260902151036 23 22 3.2 3.2 0.00 0.00 0.00 40 1010.3
20260902150535 23 22 3.2 3.2 0.00 0.00 0.00 40 1010.3
20260902150036 23 68 3.2 3.2 0.00 0.00 0.00 40 1010.4
20260902145554 23 68 3.2 3.2 0.00 0.00 0.00 40 1010.4
20260902145055 23 68 6.4 6.4 0.00 0.00 0.00 39 1010.3
20260902144535 23 68 6.4 6.4 0.00 0.00 0.00 39 1010.3
20260902144037 23 22 4.8 4.8 0.00 0.00 0.00 40 1010.3
20260902143535 23 22 4.8 4.8 0.00 0.00 0.00 40 1010.3
20260902143037 23 0 9.7 9.7 0.00 0.00 0.00 40 1010.7
20260902142536 23 0 9.7 9.7 0.00 0.00 0.00 40 1010.7
20260902142036 23 68 1.6 1.6 0.00 0.00 0.00 40 1010.6
20260902141555 23 68 1.6 1.6 0.00 0.00 0.00 40 1010.6
20260902141035 23 90 1.6 1.6 0.00 0.00 0.00 41 1010.6
20260902140536 23 90 1.6 1.6 0.00 0.00 0.00 41 1010.6
20260902140042 23 0 8.0 8.0 0.00 0.00 0.00 40 1010.7
20260902135536 23 0 8.0 8.0 0.00 0.00 0.00 40 1010.7
20260902135037 23 68 4.8 4.8 0.00 0.00 0.00 40 1010.9
20260902134535 23 68 4.8 4.8 0.00 0.00 0.00 40 1010.9
20260902134057 23 45 3.2 3.2 0.00 0.00 0.00 41 1010.9
20260902133555 23 45 3.2 3.2 0.00 0.00 0.00 41 1010.9
20260902133036 23 90 4.8 4.8 0.00 0.00 0.00 41 1010.8
20260902132536 23 90 4.8 4.8 0.00 0.00 0.00 41 1010.8
20260902132036 23 68 3.2 3.2 0.00 0.00 0.00 40 1010.9
20260902131536 23 68 3.2 3.2 0.00 0.00 0.00 40 1010.9
20260902131035 23 68 8.0 8.0 0.00 0.00 0.00 40 1010.9
20260902130535 23 68 8.0 8.0 0.00 0.00 0.00 40 1010.9
20260902130036 23 45 6.4 6.4 0.00 0.00 0.00 40 1011.0
20260902125536 23 45 6.4 6.4 0.00 0.00 0.00 40 1011.0
20260902125036 24 45 3.2 3.2 0.00 0.00 0.00 40 1011.2
20260902124535 24 45 3.2 3.2 0.00 0.00 0.00 40 1011.2
20260902124040 24 68 1.6 1.6 0.00 0.00 0.00 39 1011.2
20260902123536 24 68 1.6 1.6 0.00 0.00 0.00 39 1011.2
20260902123055 24 90 0.0 0.0 0.00 0.00 0.00 40 1011.3
20260902122555 24 90 0.0 0.0 0.00 0.00 0.00 40 1011.3
20260902122036 24 90 8.0 8.0 0.00 0.00 0.00 39 1011.5
20260902121534 24 90 8.0 8.0 0.00 0.00 0.00 39 1011.5
20260902121036 24 0 0.0 0.0 0.00 0.00 0.00 39 1011.5
20260902120536 24 0 0.0 0.0 0.00 0.00 0.00 39 1011.5
20260902120050 24 22 6.4 6.4 0.00 0.00 0.00 40 1011.7
20260902115536 24 22 6.4 6.4 0.00 0.00 0.00 40 1011.7
20260902115056 24 45 6.4 6.4 0.00 0.00 0.00 39 1011.8
20260902114536 24 45 6.4 6.4 0.00 0.00 0.00 39 1011.8
20260902114042 24 90 6.4 6.4 0.00 0.00 0.00 39 1011.8
20260902113537 24 90 6.4 6.4 0.00 0.00 0.00 39 1011.8
20260902113043 23 90 6.4 6.4 0.00 0.00 0.00 40 1011.7
20260902112536 23 90 6.4 6.4 0.00 0.00 0.00 40 1011.7
20260902112036 23 0 9.7 9.7 0.00 0.00 0.00 41 1011.9
20260902111535 23 0 9.7 9.7 0.00 0.00 0.00 41 1011.9
20260902111036 23 0 9.7 9.7 0.00 0.00 0.00 40 1011.9
20260902110536 23 0 9.7 9.7 0.00 0.00 0.00 40 1011.9
20260902110057 23 22 1.6 1.6 0.00 0.00 0.00 40 1012.2
20260902105536 23 22 1.6 1.6 0.00 0.00 0.00 40 1012.2
20260902105100 23 112 9.7 9.7 0.00 0.00 0.00 40 1012.1
20260902104536 23 112 9.7 9.7 0.00 0.00 0.00 40 1012.1
20260902104036 23 90 1.6 1.6 0.00 0.00 0.00 41 1012.1
20260902103536 23 90 1.6 1.6 0.00 0.00 0.00 41 1012.1
20260902103036 23 158 0.0 0.0 0.00 0.00 0.00 42 1012.4
20260902102535 23 158 0.0 0.0 0.00 0.00 0.00 42 1012.4
20260902102036 23 112 0.0 0.0 0.00 0.00 0.00 42 1012.5
20260902101535 23 112 0.0 0.0 0.00 0.00 0.00 42 1012.5
20260902101042 23 112 1.6 1.6 0.00 0.00 0.00 43 1012.5
20260902100536 23 112 1.6 1.6 0.00 0.00 0.00 43 1012.5
20260902100036 23 90 1.6 1.6 0.00 0.00 0.00 44 1012.5
20260902095535 23 90 1.6 1.6 0.00 0.00 0.00 44 1012.5
20260902095035 23 158 3.2 3.2 0.00 0.00 0.00 42 1012.4
20260902094553 23 158 3.2 3.2 0.00 0.00 0.00 42 1012.4
20260902094055 23 112 0.0 0.0 0.00 0.00 0.00 43 1012.4
20260902093536 23 112 0.0 0.0 0.00 0.00 0.00 43 1012.4
20260902093035 22 90 1.6 1.6 0.00 0.00 0.00 42 1012.6
20260902092536 22 90 1.6 1.6 0.00 0.00 0.00 42 1012.6
20260902092036 21 135 6.4 6.4 0.00 0.00 0.00 44 1012.7
20260902091535 21 135 6.4 6.4 0.00 0.00 0.00 44 1012.7
20260902091035 22 68 0.0 0.0 0.00 0.00 0.00 43 1012.7
20260902090535 22 68 0.0 0.0 0.00 0.00 0.00 43 1012.7
20260902090059 22 45 0.0 0.0 0.00 0.00 0.00 43 1012.6
20260902085554 22 45 0.0 0.0 0.00 0.00 0.00 43 1012.6
20260902085035 22 112 9.7 9.7 0.00 0.00 0.00 43 1012.7
20260902084536 22 112 9.7 9.7 0.00 0.00 0.00 43 1012.7
20260902084035 22 68 0.0 0.0 0.00 0.00 0.00 44 1012.7
20260902083534 22 68 0.0 0.0 0.00 0.00 0.00 44 1012.7
20260902083035 22 68 1.6 1.6 0.00 0.00 0.00 43 1012.4
20260902082554 22 68 1.6 1.6 0.00 0.00 0.00 43 1012.4
20260902082057 23 90 0.0 0.0 0.00 0.00 0.00 43 1012.6
20260902081553 23 90 0.0 0.0 0.00 0.00 0.00 43 1012.6
20260902081036 22 90 3.2 3.2 0.00 0.00 0.00 43 1012.6
20260902080535 22 90 3.2 3.2 0.00 0.00 0.00 43 1012.6
20260902080046 22 90 3.2 3.2 0.00 0.00 0.00 44 1012.3
20260902075535 22 90 3.2 3.2 0.00 0.00 0.00 44 1012.3
20260902075036 22 68 6.4 6.4 0.00 0.00 0.00 44 1012.3
20260902074536 22 68 6.4 6.4 0.00 0.00 0.00 44 1012.3
20260902074036 21 90 0.0 0.0 0.00 0.00 0.00 44 1012.3
20260902073535 21 90 0.0 0.0 0.00 0.00 0.00 44 1012.3
20260902073034 22 68 1.6 1.6 0.00 0.00 0.00 42 1012.4
20260902072535 22 68 1.6 1.6 0.00 0.00 0.00 42 1012.4
20260902072033 22 112 4.8 4.8 0.00 0.00 0.00 42 1012.2
20260902071535 22 112 4.8 4.8 0.00 0.00 0.00 42 1012.2
20260902071036 21 112 3.2 3.2 0.00 0.00 0.00 44 1012.2
20260902070535 21 112 3.2 3.2 0.00 0.00 0.00 44 1012.2
20260902070035 21 112 3.2 3.2 0.00 0.00 0.00 43 1012.0
20260902065552 21 112 3.2 3.2 0.00 0.00 0.00 43 1012.0
20260902065057 21 112 0.0 0.0 0.00 0.00 0.00 44 1012.2
20260902064552 21 112 0.0 0.0 0.00 0.00 0.00 44 1012.2
20260902064056 21 135 1.6 1.6 0.00 0.00 0.00 43 1012.2
20260902063534 21 135 1.6 1.6 0.00 0.00 0.00 43 1012.2
20260902063035 20 112 0.0 0.0 0.00 0.00 0.00 46 1012.0
20260902062536 20 112 0.0 0.0 0.00 0.00 0.00 46 1012.0
20260902062036 19 112 4.8 4.8 0.00 0.00 0.00 49 1012.1
20260902061534 19 112 4.8 4.8 0.00 0.00 0.00 49 1012.1
20260902061035 20 112 0.0 0.0 0.00 0.00 0.00 49 1012.1
20260902060536 20 112 0.0 0.0 0.00 0.00 0.00 49 1012.1
20260902060036 20 112 0.0 0.0 0.00 0.00 0.00 50 1012.1
20260902055536 20 112 0.0 0.0 0.00 0.00 0.00 50 1012.1
20260902055036 20 112 8.0 8.0 0.00 0.00 0.00 49 1011.9
20260902054535 20 112 8.0 8.0 0.00 0.00 0.00 49 1011.9
20260902054035 20 135 4.8 4.8 0.00 0.00 0.00 50 1011.9
20260902053535 20 135 4.8 4.8 0.00 0.00 0.00 50 1011.9
20260902053055 20 158 0.0 0.0 0.00 0.00 0.00 51 1012.0
20260902052535 20 158 0.0 0.0 0.00 0.00 0.00 51 1012.0
20260902052054 20 158 3.2 3.2 0.00 0.00 0.00 52 1011.8
20260902051535 20 158 3.2 3.2 0.00 0.00 0.00 52 1011.8
20260902051042 18 158 3.2 3.2 0.00 0.00 0.00 52 1011.8
20260902050535 18 158 3.2 3.2 0.00 0.00 0.00 52 1011.8
20260902050035 18 158 0.0 0.0 0.00 0.00 0.00 54 1011.8
20260902045535 18 158 0.0 0.0 0.00 0.00 0.00 54 1011.8
20260902045034 17 158 1.6 1.6 0.00 0.00 0.00 55 1012.0
20260902044535 17 158 1.6 1.6 0.00 0.00 0.00 55 1012.0
20260902044036 16 158 1.6 1.6 0.00 0.00 0.00 57 1012.0
20260902043536 16 158 1.6 1.6 0.00 0.00 0.00 57 1012.0
20260902043036 16 158 0.0 0.0 0.00 0.00 0.00 59 1011.8
20260902042537 16 158 0.0 0.0 0.00 0.00 0.00 59 1011.8
20260902042036 16 158 0.0 0.0 0.00 0.00 0.00 59 1011.9
20260902041536 16 158 0.0 0.0 0.00 0.00 0.00 59 1011.9
20260902041036 15 158 1.6 1.6 0.00 0.00 0.00 60 1011.9
20260902040535 15 158 1.6 1.6 0.00 0.00 0.00 60 1011.9
20260902040036 16 158 1.6 1.6 0.00 0.00 0.00 61 1011.9
20260902035554 16 158 1.6 1.6 0.00 0.00 0.00 61 1011.9
20260902035036 16 158 0.0 0.0 0.00 0.00 0.00 61 1012.0
20260902034534 16 158 0.0 0.0 0.00 0.00 0.00 61 1012.0
20260902034035 15 158 0.0 0.0 0.00 0.00 0.00 62 1012.0
20260902033534 15 158 0.0 0.0 0.00 0.00 0.00 62 1012.0
20260902033034 16 158 0.0 0.0 0.00 0.00 0.00 62 1012.1
20260902032534 16 158 0.0 0.0 0.00 0.00 0.00 62 1012.1
20260902032036 16 158 1.6 1.6 0.00 0.00 0.00 62 1012.1
20260902031534 16 158 1.6 1.6 0.00 0.00 0.00 62 1012.1
20260902031034 16 158 1.6 1.6 0.00 0.00 0.00 62 1012.1
20260902030534 16 158 1.6 1.6 0.00 0.00 0.00 62 1012.1
20260902030052 16 90 0.0 0.0 0.00 0.00 0.00 62 1012.1
20260902025553 16 90 0.0 0.0 0.00 0.00 0.00 62 1012.1
20260902025035 16 90 0.0 0.0 0.00 0.00 0.00 62 1011.9
20260902024534 16 90 0.0 0.0 0.00 0.00 0.00 62 1011.9
20260902024036 16 90 1.6 1.6 0.00 0.00 0.00 61 1011.9
20260902023534 16 90 1.6 1.6 0.00 0.00 0.00 61 1011.9
20260902023035 16 90 0.0 0.0 0.00 0.00 0.00 61 1012.0
20260902022535 16 90 0.0 0.0 0.00 0.00 0.00 61 1012.0
20260902022035 16 90 1.6 1.6 0.00 0.00 0.00 61 1012.1
20260902021553 16 90 1.6 1.6 0.00 0.00 0.00 61 1012.1
20260902021054 16 90 1.6 1.6 0.00 0.00 0.00 61 1012.1
20260902020534 16 90 1.6 1.6 0.00 0.00 0.00 61 1012.1
20260902020036 16 90 1.6 1.6 0.00 0.00 0.00 61 1012.3
20260902015534 16 90 1.6 1.6 0.00 0.00 0.00 61 1012.3
20260902015035 16 90 0.0 0.0 0.00 0.00 0.00 61 1012.1
20260902014534 16 90 0.0 0.0 0.00 0.00 0.00 61 1012.1
20260902014034 16 90 0.0 0.0 0.00 0.00 0.00 61 1012.1
20260902013535 16 90 0.0 0.0 0.00 0.00 0.00 61 1012.1
20260902013036 16 90 0.0 0.0 0.00 0.00 0.00 62 1012.3
20260902012533 16 90 0.0 0.0 0.00 0.00 0.00 62 1012.3
20260902012036 16 90 0.0 0.0 0.00 0.00 0.00 61 1012.2
20260902011535 16 90 0.0 0.0 0.00 0.00 0.00 61 1012.2
20260902011034 16 90 0.0 0.0 0.00 0.00 0.00 60 1012.2
20260902010536 16 90 0.0 0.0 0.00 0.00 0.00 60 1012.2
20260902010034 16 90 0.0 0.0 0.00 0.00 0.00 60 1012.1
20260902005536 16 90 0.0 0.0 0.00 0.00 0.00 60 1012.1
20260902005035 16 90 0.0 0.0 0.00 0.00 0.00 60 1012.1
20260902004535 16 90 0.0 0.0 0.00 0.00 0.00 60 1012.1
20260902004038 16 90 0.0 0.0 0.00 0.00 0.00 60 1012.1
20260902003535 16 90 0.0 0.0 0.00 0.00 0.00 60 1012.1
20260902003041 16 90 0.0 0.0 0.00 0.00 0.00 60 1012.3
20260902002534 16 90 0.0 0.0 0.00 0.00 0.00 60 1012.3
20260902002042 16 90 0.0 0.0 0.00 0.00 0.00 59 1012.1
20260902001541 16 90 0.0 0.0 0.00 0.00 0.00 59 1012.1
20260902001035 16 90 0.0 0.0 0.00 0.00 0.00 59 1012.1
20260902000536 16 90 0.0 0.0 0.00 0.00 0.00 59 1012.1
20260902000035 16 90 0.0 0.0 0.00 0.00 0.00 59 1012.3
20260901235534 16 90 0.0 0.0 0.00 0.00 0.00 59 1012.3
20260901235034 17 90 0.0 0.0 0.00 0.00 0.00 59 1012.2
20260901234535 17 90 0.0 0.0 0.00 0.00 0.00 59 1012.2
20260901234035 17 90 0.0 0.0 0.00 0.00 0.00 59 1012.2
20260901233535 17 90 0.0 0.0 0.00 0.00 0.00 59 1012.2
20260901233036 17 90 0.0 0.0 0.00 0.00 0.00 59 1012.4
20260901232554 17 90 0.0 0.0 0.00 0.00 0.00 59 1012.4
20260901232044 17 112 0.0 0.0 0.00 0.00 0.00 58 1012.3
20260901231536 17 112 0.0 0.0 0.00 0.00 0.00 58 1012.3
20260901231034 17 90 1.6 1.6 0.00 0.00 0.00 59 1012.3
20260901230553 17 90 1.6 1.6 0.00 0.00 0.00 59 1012.3
20260901230035 17 22 0.0 0.0 0.00 0.00 0.00 60 1012.4
20260901225535 17 22 0.0 0.0 0.00 0.00 0.00 60 1012.4
20260901225035 17 22 1.6 1.6 0.00 0.00 0.00 60 1012.5
20260901224552 17 22 1.6 1.6 0.00 0.00 0.00 60 1012.5
20260901224035 17 22 6.4 6.4 0.00 0.00 0.00 60 1012.5
20260901223534 17 22 6.4 6.4 0.00 0.00 0.00 60 1012.5
20260901223035 17 22 4.8 4.8 0.00 0.00 0.00 62 1012.5
20260901222535 17 22 4.8 4.8 0.00 0.00 0.00 62 1012.5
20260901222035 17 22 0.0 0.0 0.00 0.00 0.00 63 1012.5
20260901221536 17 22 0.0 0.0 0.00 0.00 0.00 63 1012.5
20260901221035 17 22 1.6 1.6 0.00 0.00 0.00 63 1012.5
20260901220554 17 22 1.6 1.6 0.00 0.00 0.00 63 1012.5
20260901220043 17 22 0.0 0.0 0.00 0.00 0.00 63 1012.5
20260901215534 17 22 0.0 0.0 0.00 0.00 0.00 63 1012.5
20260901215035 17 22 4.8 4.8 0.00 0.00 0.00 62 1012.5
20260901214533 17 22 4.8 4.8 0.00 0.00 0.00 62 1012.5
20260901214035 17 22 0.0 0.0 0.00 0.00 0.00 63 1012.5
20260901213553 17 22 0.0 0.0 0.00 0.00 0.00 63 1012.5
20260901213036 17 22 0.0 0.0 0.00 0.00 0.00 64 1012.3
20260901212535 17 22 0.0 0.0 0.00 0.00 0.00 64 1012.3
20260901212035 17 22 0.0 0.0 0.00 0.00 0.00 66 1012.1
20260901211535 17 22 0.0 0.0 0.00 0.00 0.00 66 1012.1
20260901211042 17 22 0.0 0.0 0.00 0.00 0.00 67 1012.1
20260901210552 17 22 0.0 0.0 0.00 0.00 0.00 67 1012.1
20260901210035 17 22 1.6 1.6 0.00 0.00 0.00 66 1012.2
20260901205535 17 22 1.6 1.6 0.00 0.00 0.00 66 1012.2
20260901205035 17 22 1.6 1.6 0.00 0.00 0.00 66 1012.3
20260901204534 17 22 1.6 1.6 0.00 0.00 0.00 66 1012.3
20260901204035 18 22 3.2 3.2 0.00 0.00 0.00 65 1012.3
20260901203553 18 22 3.2 3.2 0.00 0.00 0.00 65 1012.3
20260901203053 18 22 6.4 6.4 0.00 0.00 0.00 65 1012.0
20260901202552 18 22 6.4 6.4 0.00 0.00 0.00 65 1012.0
20260901201534 18 22 3.2 3.2 0.00 0.00 0.00 64 1012.1
20260901201035 18 22 1.6 1.6 0.00 0.00 0.00 64 1012.1
20260901200534 18 22 1.6 1.6 0.00 0.00 0.00 64 1012.1
20260901200035 18 22 6.4 6.4 0.00 0.00 0.00 64 1012.0
20260901195535 18 22 6.4 6.4 0.00 0.00 0.00 64 1012.0
20260901195034 18 22 1.6 1.6 0.00 0.00 0.00 65 1012.0
20260901194534 18 22 1.6 1.6 0.00 0.00 0.00 65 1012.0
20260901194058 18 22 1.6 1.6 0.00 0.00 0.00 65 1012.0
20260901193555 18 22 1.6 1.6 0.00 0.00 0.00 65 1012.0
20260901193035 18 22 1.6 1.6 0.00 0.00 0.00 65 1011.9
20260901192535 18 22 1.6 1.6 0.00 0.00 0.00 65 1011.9
20260901192043 18 22 0.0 0.0 0.00 0.00 0.00 65 1011.9
20260901191535 18 22 0.0 0.0 0.00 0.00 0.00 65 1011.9
20260901191036 18 22 1.6 1.6 0.00 0.00 0.00 65 1011.9
20260901190534 18 22 1.6 1.6 0.00 0.00 0.00 65 1011.9
20260901190036 18 22 1.6 1.6 0.00 0.00 0.00 66 1012.0
20260901185553 18 22 1.6 1.6 0.00 0.00 0.00 66 1012.0